Network for Lightning and Thunderstorms in Real Time - Real time lightning map
Regions/Countries: current only
List of Stations for "Australia / South Australia" sorted descending by Used
(Used = Number of selected signals used to compute the strike position)
StationCityCommentCountryRegionsStatusLast signalTotalValidInvolvedUsedClosestFarthest
2353WhyallaMostly relying on e field ante...Australia / South AustraliaOceania 1Running2024-04-12 23:2456131685102381372 km4795 km
2438Athelstone (IADELA729)2 x 200mm Ferrite, 200mm E-fie...Australia / South AustraliaOceania 1Running2024-04-12 23:24138768772101226 km3792 km
2353WhyallaMostly relying on e field ante...Australia / South AustraliaAsia 1Running2024-04-12 23:2456131685653066 km4024 km
2353WhyallaMostly relying on e field ante...Australia / South AustraliaJapan 1Running2024-04-12 23:2456131685653826 km4635 km
2105Port LincolnAustralia / South AustraliaOceania 1Running2024-04-12 23:06393334 km33 km
2175IronbankAustralia / South AustraliaOceania 1Running2024-04-12 23:2394804431227 km1437 km
2667Para Hills WestBack To Testing StageAustralia / South AustraliaOceania 1Running2024-04-12 23:13126631273 km4590 km
1016Paringa, South Australia300mm ferrite Hfield/200mm Efi...Australia / South AustraliaOceania 1Running2024-04-12 23:24139603307322629 km3401 km
2349Mil-LelTesting H FieldAustralia / South AustraliaOceania 1Running2024-04-12 23:251018951192621065 km1306 km
2353WhyallaMostly relying on e field ante...Australia / South AustraliaEurope 1Running2024-04-12 23:2456131685220 km8146 km
2271TaperooTestingAustralia / South AustraliaAsia 1Running2024-04-12 23:193028613282 km4700 km
2353WhyallaMostly relying on e field ante...Australia / South AustraliaSouth America 1Running2024-04-12 23:2456131685110 km8146 km
2353WhyallaMostly relying on e field ante...Australia / South AustraliaAfrica 1Running2024-04-12 23:2456131685110 km9274 km
2976AdelaideAustralia / South AustraliaOceania 1Running2024-04-12 23:2299581811237 km4525 km
1015Lyrup, South Australia300mm ferrite Hfield/800mm Efi...Australia / South AustraliaOceania 1Offline2023-10-21 08:37000024000 km0 km
1015Lyrup, South Australia300mm ferrite Hfield/800mm Efi...Australia / South AustraliaAsia 1Offline2023-10-21 08:37000024000 km0 km
1248RidgehavenRed E200mm onlyAustralia / South AustraliaOceania 1Offline2024-04-10 01:40000024000 km0 km
1694Salisbury, South Australia3 x 200mm Ferrite + 300mm E. F...Australia / South AustraliaOceania 1Offline2022-10-30 00:00000024000 km0 km
2105Port LincolnAustralia / South AustraliaEurope 3Running2024-04-12 23:06393100 km15957 km
2105Port LincolnAustralia / South AustraliaEurope 1Running2024-04-12 23:06393000 km0 km
2105Port LincolnAustralia / South AustraliaSouth America 1Running2024-04-12 23:06393000 km0 km
2105Port LincolnAustralia / South AustraliaAfrica 1Running2024-04-12 23:06393000 km0 km
2105Port LincolnAustralia / South AustraliaEurope 2Running2024-04-12 23:06393100 km15957 km
2271TaperooTestingAustralia / South AustraliaOceania 1Running2024-04-12 23:193028701245 km1424 km
2271TaperooTestingAustralia / South AustraliaJapan 2Running2024-04-12 23:1930282104952 km7538 km
2953StrathalbynSHR/Hallett/CFS SBYN-02Australia / South AustraliaOceania 1Offline2024-04-12 11:30000024000 km0 km
Select your menu language
češtinadanskdeutschελληνικάenglishespañolsuomeksifrançaismagyaritaliano日本語latviskinederlandsenorskмакедонскиpolskiрусскийсрпскиsvenskatürkукраїнський
If your language is not supported and if you want to adapt the menu language, then write an email to info ☺ blitzortung.org.